Miscellaneous Local Product
Issued by NWS Hastings, NE

Home | Current Version | Previous Version | Graphics & Text | Print | Product List | Glossary On
Versions: 1 2 3 4 5 6 7 8 9 10 11 12 13 14 15 16 17 18 19 20 21 22 23 24 25 26 27 28 29 30 31 32 33 34 35 36 37 38 39 40 41 42 43 44 45 46 47 48 49 50
000
AXUS43 KGID 170802
MISGRI

GID CWA HOURLY WEATHER ROUNDUP
NATIONAL WEATHER SERVICE HASTINGS NE
200 AM CST TUE JAN 17 2017

NOTE: "FAIR" INDICATES FEW OR NO CLOUDS BELOW 12,000 FEET WITH NO
SIGNIFICANT WEATHER AND/OR OBSTRUCTIONS TO VISIBILITY.

...SOUTH CENTRAL NEBRASKA...

CITY           SKY/WX    TMP DP  RH WIND       PRES   REMARKS
GRAND ISLAND   CLEAR     25  23  92 NW7         N/A  WCI  17
HASTINGS       CLEAR     28  23  81 NW13      30.05R WCI  17
KEARNEY        CLEAR     27  19  74 CALM      30.05R
ORD            CLOUDY    21  16  81 NW7       30.04R WCI  12
YORK           CLOUDY    28  25  86 CALM      30.03R
AURORA         MOCLDY    27  24  87 NW3       30.03R
LEXINGTON      CLOUDY    26  22  82 W8        30.06R WCI  18
HOLDREGE       CLOUDY    28  23  81 NW3       30.05R
HEBRON         CLOUDY    32  28  86 NW3       30.04R

...NEBRASKA PANHANDLE...

CITY           SKY/WX    TMP DP  RH WIND       PRES   REMARKS
CHADRON        CLEAR     14   8  77 W5        30.07F WCI   6
ALLIANCE       CLEAR     16  11  80 W6        30.04F WCI   7
SCOTTSBLUFF    CLEAR     19  13  77 NW8       30.07F WCI   9
SIDNEY         CLOUDY    22  13  68 W12       30.07S WCI  10

...WESTERN AND NORTH CENTRAL NEBRASKA...

CITY           SKY/WX    TMP DP  RH WIND       PRES   REMARKS
VALENTINE      CLEAR     14  10  84 W6        30.05F WCI   5
AINSWORTH      CLOUDY    19  16  90 W9        30.02F WCI   7
ONEILL         CLOUDY    20  17  86 NW12      30.02F WCI   8
BROKEN BOW     CLOUDY    25  18  74 NW16      30.03F WCI  12
IMPERIAL       CLEAR     27  21  78 NW8       30.08S WCI  19
NORTH PLATTE   CLOUDY    22  18  85 NW5       30.07R WCI  16
MCCOOK         CLEAR     28  23  81 W9        30.08R WCI  19

...EASTERN NEBRASKA...

CITY           SKY/WX    TMP DP  RH WIND       PRES   REMARKS
NORFOLK        CLOUDY    20  15  81 NW12      30.01R WCI   8
SO SIOUX CITY  CLOUDY    26  22  84 NW18      29.98F WCI  13
TEKAMAH        CLOUDY    30  27  88 NW14      29.99R WCI  19
COLUMBUS       CLOUDY    27  19  74 CALM      30.03R
ALBION         CLOUDY    21  17  83 NW6       30.02R FOG     WCI  14
OMAHA EPPLEY   CLOUDY    33  28  81 NW16      29.99R HAZE    WCI  23
OFFUTT AFB     CLOUDY    33  33 100 NW10      29.97R WCI  25
MILLARD        CLOUDY    34  32  92 NW9G21    29.98S WCI  26
LINCOLN        CLOUDY    32  29  88 NW10      30.02R WCI  24
NEBRASKA CITY  CLOUDY    32  32 100 NW9       29.97S FOG     WCI  24
BEATRICE       CLOUDY    33  32  95 NW6       30.01R WCI  27
FALLS CITY     CLOUDY    33  32  96 W10       29.99R WCI  25

...NORTHERN KANSAS...

CITY           SKY/WX    TMP DP  RH WIND       PRES   REMARKS
GOODLAND       CLOUDY    24  21  88 W9        30.09S WCI  14
HILL CITY      PTCLDY    32  28  85 W8        30.08R WCI  25
NORTON         SUNNY     28  21  74 W7        30.07R WCI  21
PHILLIPSBURG   CLEAR     32  27  80 NW8       30.08R WCI  25
SMITH CENTER   CLOUDY    30  28  93 NW9       30.06S WCI  22
HAYS           CLOUDY    33  30  88 NW8       30.08R WCI  26
RUSSELL        CLOUDY    33  30  88 NW13      30.05R WCI  24
CONCORDIA      CLOUDY    33  32  96 NW8       30.03S WCI  26
SALINA           N/A    N/A N/A N/A MISG        N/A
TOPEKA         CLOUDY    35  32  88 W8        30.02R WCI  29



USA.gov is the U.S. government's official web portal to all federal, state and local government web resources and services.